| time (UTC) | temp F | wind direction | speed knots | gust knots | rain 1hr in | rain 24hr in | rain mn in | humidity % | barometer mb |
| 20260507012534 | 42 | 101 | 0.0 | 1.7 | 0.03 | 0.58 | 0.34 | 69 | 1016.9 |
| 20260507012014 | 42 | 101 | 0.0 | 2.6 | 0.03 | 0.58 | 0.34 | 69 | 1017.0 |
| 20260507011523 | 42 | 101 | 0.0 | 2.6 | 0.02 | 0.57 | 0.33 | 68 | 1016.9 |
| 20260507010531 | 42 | 88 | 0.0 | 1.7 | 0.03 | 0.57 | 0.33 | 67 | 1017.0 |
| 20260507010031 | 43 | 97 | 0.0 | 1.7 | 0.03 | 0.57 | 0.33 | 67 | 1017.0 |
| 20260507005513 | 43 | 94 | 0.0 | 1.7 | 0.02 | 0.66 | 0.32 | 66 | 1017.1 |
| 20260507005014 | 43 | 105 | 0.9 | 1.7 | 0.03 | 0.66 | 0.32 | 67 | 1017.1 |
| 20260507004522 | 43 | 105 | 0.0 | 1.7 | 0.03 | 0.66 | 0.32 | 67 | 1017.1 |
| 20260507004024 | 43 | 105 | 0.0 | 0.9 | 0.03 | 0.66 | 0.32 | 67 | 1017.2 |
| 20260507003532 | 42 | 105 | 0.0 | 0.9 | 0.03 | 0.66 | 0.32 | 68 | 1017.1 |
| 20260507003014 | 42 | 105 | 0.0 | 1.7 | 0.03 | 0.65 | 0.31 | 68 | 1017.2 |
| 20260507002522 | 42 | 108 | 0.0 | 1.7 | 0.03 | 0.65 | 0.31 | 67 | 1017.3 |
| 20260507002022 | 42 | 114 | 0.0 | 1.7 | 0.03 | 0.65 | 0.31 | 66 | 1017.3 |
| 20260507001549 | 42 | 113 | 0.0 | 1.7 | 0.04 | 0.65 | 0.31 | 66 | 1017.5 |
| 20260507001029 | 42 | 102 | 0.0 | 2.6 | 0.03 | 0.64 | 0.30 | 67 | 1017.5 |
| 20260507000530 | 42 | 102 | 0.9 | 2.6 | 0.03 | 0.64 | 0.30 | 68 | 1017.5 |
| 20260507000019 | 42 | 104 | 0.0 | 2.6 | 0.03 | 0.67 | 0.30 | 68 | 1017.5 |
| 20260506235520 | 42 | 103 | 0.9 | 2.6 | 0.04 | 0.67 | 0.30 | 68 | 1017.6 |
| 20260506235021 | 42 | 96 | 0.0 | 2.6 | 0.03 | 0.66 | 0.29 | 69 | 1017.7 |
| 20260506234528 | 42 | 97 | 0.0 | 0.0 | 0.03 | 0.66 | 0.29 | 68 | 1017.7 |
| 20260506234029 | 41 | 97 | 0.0 | 4.3 | 0.03 | 0.66 | 0.29 | 69 | 1017.8 |
| 20260506233515 | 41 | 97 | 1.7 | 4.3 | 0.04 | 0.66 | 0.29 | 69 | 1017.8 |
| 20260506233017 | 41 | 117 | 0.0 | 1.7 | 0.03 | 0.65 | 0.28 | 69 | 1017.9 |
| 20260506232545 | 41 | 117 | 0.0 | 1.7 | 0.03 | 0.65 | 0.28 | 68 | 1017.9 |
| 20260506232054 | 41 | 126 | 0.0 | 2.6 | 0.03 | 0.65 | 0.28 | 68 | 1017.9 |
| 20260506231513 | 41 | 124 | 0.0 | 2.6 | 0.03 | 0.64 | 0.27 | 68 | 1017.8 |
| 20260506231014 | 41 | 123 | 0.9 | 2.6 | 0.03 | 0.64 | 0.27 | 69 | 1017.8 |
| 20260506230516 | 41 | 94 | 0.0 | 2.6 | 0.03 | 0.64 | 0.27 | 69 | 1017.7 |
| 20260506230022 | 41 | 98 | 0.9 | 2.6 | 0.04 | 0.64 | 0.27 | 69 | 1017.7 |
| 20260506225524 | 41 | 105 | 0.0 | 4.3 | 0.03 | 0.63 | 0.26 | 69 | 1017.7 |
| 20260506225033 | 41 | 88 | 0.9 | 4.3 | 0.03 | 0.63 | 0.26 | 69 | 1017.8 |
| 20260506224534 | 41 | 119 | 0.0 | 2.6 | 0.04 | 0.63 | 0.26 | 70 | 1017.8 |
| 20260506224015 | 41 | 121 | 0.9 | 4.3 | 0.04 | 0.63 | 0.26 | 70 | 1017.9 |
| 20260506223523 | 41 | 106 | 0.9 | 4.3 | 0.03 | 0.62 | 0.25 | 70 | 1018.0 |
| 20260506223024 | 41 | 118 | 0.0 | 3.5 | 0.03 | 0.62 | 0.25 | 70 | 1018.0 |
| 20260506222532 | 40 | 109 | 0.9 | 2.6 | 0.04 | 0.62 | 0.25 | 70 | 1018.0 |
| 20260506222034 | 40 | 109 | 0.0 | 4.3 | 0.03 | 0.61 | 0.24 | 69 | 1018.1 |
| 20260506221514 | 41 | 92 | 0.9 | 2.6 | 0.03 | 0.61 | 0.24 | 68 | 1018.1 |
| 20260506221041 | 41 | 110 | 0.0 | 1.7 | 0.04 | 0.61 | 0.24 | 69 | 1018.3 |
| 20260506220527 | 41 | 105 | 0.0 | 1.7 | 0.04 | 0.61 | 0.24 | 70 | 1018.3 |
| 20260506220029 | 41 | 93 | 0.0 | 1.7 | 0.03 | 0.60 | 0.23 | 70 | 1018.4 |
| 20260506215557 | 41 | 107 | 0.0 | 2.6 | 0.03 | 0.60 | 0.23 | 69 | 1018.4 |
| 20260506215037 | 40 | 109 | 0.9 | 5.2 | 0.04 | 0.60 | 0.23 | 68 | 1018.5 |
| 20260506214524 | 40 | 90 | 0.0 | 5.2 | 0.03 | 0.59 | 0.22 | 68 | 1018.6 |
| 20260506214026 | 41 | 111 | 0.0 | 4.3 | 0.03 | 0.59 | 0.22 | 69 | 1018.7 |
| 20260506213555 | 41 | 112 | 0.0 | 4.3 | 0.03 | 0.59 | 0.22 | 69 | 1018.6 |
| 20260506213015 | 41 | 109 | 0.9 | 4.3 | 0.04 | 0.59 | 0.22 | 69 | 1018.8 |
| 20260506212517 | 41 | 107 | 0.0 | 3.5 | 0.03 | 0.58 | 0.21 | 70 | 1018.8 |
| 20260506212020 | 41 | 103 | 0.9 | 1.7 | 0.03 | 0.58 | 0.21 | 70 | 1018.9 |
| 20260506211529 | 41 | 111 | 0.0 | 3.5 | 0.03 | 0.58 | 0.21 | 70 | 1018.9 |
| 20260506211025 | 41 | 111 | 0.0 | 3.5 | 0.03 | 0.57 | 0.20 | 70 | 1019.0 |
| 20260506210535 | 41 | 105 | 0.0 | 1.7 | 0.03 | 0.57 | 0.20 | 69 | 1019.0 |
| 20260506210050 | 41 | 106 | 0.0 | 0.0 | 0.03 | 0.57 | 0.20 | 70 | 1019.0 |
| 20260506205514 | 41 | 122 | 0.0 | 0.0 | 0.03 | 0.57 | 0.20 | 70 | 1019.1 |
| 20260506205015 | 42 | 157 | 0.0 | 0.0 | 0.02 | 0.56 | 0.19 | 71 | 1019.2 |
| 20260506204524 | 41 | 157 | 0.0 | 0.0 | 0.03 | 0.56 | 0.19 | 71 | 1019.2 |
| 20260506204024 | 41 | 130 | 0.0 | 0.9 | 0.03 | 0.56 | 0.19 | 70 | 1019.2 |
| 20260506203553 | 41 | 94 | 0.0 | 2.6 | 0.03 | 0.56 | 0.19 | 69 | 1019.3 |
| 20260506203100 | 41 | 100 | 0.9 | 2.6 | 0.02 | 0.55 | 0.18 | 69 | 1019.4 |
| 20260506202541 | 41 | 167 | 0.0 | 2.6 | 0.02 | 0.55 | 0.18 | 68 | 1019.5 |
| 20260506202022 | 41 | 98 | 0.0 | 2.6 | 0.02 | 0.55 | 0.18 | 69 | 1019.5 |
| 20260506201530 | 41 | 86 | 0.9 | 2.6 | 0.03 | 0.55 | 0.18 | 69 | 1019.6 |
| 20260506201031 | 41 | 103 | 0.0 | 2.6 | 0.02 | 0.54 | 0.17 | 69 | 1019.6 |
| 20260506200512 | 41 | 78 | 0.0 | 1.7 | 0.02 | 0.54 | 0.17 | 71 | 1019.7 |
| 20260506200022 | 41 | 78 | 0.0 | 2.6 | 0.02 | 0.55 | 0.17 | 72 | 1019.7 |
| 20260506195523 | 41 | 76 | 0.9 | 2.6 | 0.02 | 0.55 | 0.17 | 73 | 1019.7 |
| 20260506195034 | 41 | 63 | 0.0 | 0.0 | 0.02 | 0.55 | 0.17 | 73 | 1019.7 |
| 20260506194513 | 41 | 63 | 0.0 | 0.0 | 0.01 | 0.54 | 0.16 | 74 | 1019.8 |
| 20260506194014 | 41 | 63 | 0.0 | 0.0 | 0.02 | 0.54 | 0.16 | 76 | 1019.8 |
| 20260506193515 | 40 | 63 | 0.0 | 1.7 | 0.02 | 0.54 | 0.16 | 77 | 1019.9 |
| 20260506193024 | 40 | 59 | 0.0 | 2.6 | 0.02 | 0.54 | 0.16 | 78 | 1020.0 |
| 20260506192532 | 41 | 59 | 0.0 | 2.6 | 0.02 | 0.54 | 0.16 | 80 | 1019.9 |
| 20260506192014 | 40 | 29 | 0.0 | 0.9 | 0.02 | 0.54 | 0.16 | 81 | 1020.0 |
| 20260506191514 | 40 | 29 | 0.0 | 0.9 | 0.01 | 0.53 | 0.15 | 81 | 1020.1 |
| 20260506190523 | 40 | 22 | 0.0 | 0.0 | 0.02 | 0.53 | 0.15 | 81 | 1020.1 |
| 20260506190024 | 40 | 22 | 0.0 | 0.0 | 0.02 | 0.53 | 0.15 | 84 | 1020.2 |
| 20260506185532 | 39 | 22 | 0.0 | 0.0 | 0.02 | 0.53 | 0.15 | 85 | 1020.3 |
| 20260506185032 | 39 | 22 | 0.0 | 0.0 | 0.02 | 0.53 | 0.15 | 86 | 1020.3 |
| 20260506184532 | 38 | 21 | 0.0 | 1.7 | 0.02 | 0.53 | 0.15 | 87 | 1020.4 |
| 20260506184012 | 38 | 21 | 0.0 | 1.7 | 0.01 | 0.52 | 0.14 | 86 | 1020.4 |
| 20260506183521 | 38 | 315 | 0.0 | 0.0 | 0.01 | 0.52 | 0.14 | 87 | 1020.3 |
| 20260506183021 | 38 | 315 | 0.0 | 0.9 | 0.02 | 0.52 | 0.14 | 88 | 1020.4 |
| 20260506182529 | 38 | 315 | 0.0 | 0.9 | 0.02 | 0.52 | 0.14 | 89 | 1020.5 |
| 20260506182013 | 38 | 315 | 0.0 | 0.9 | 0.02 | 0.52 | 0.14 | 89 | 1020.5 |
| 20260506181514 | 38 | 315 | 0.0 | 1.7 | 0.02 | 0.52 | 0.14 | 90 | 1020.5 |
| 20260506181022 | 38 | 315 | 0.0 | 1.7 | 0.02 | 0.52 | 0.14 | 90 | 1020.6 |
| 20260506180524 | 38 | 320 | 0.0 | 0.0 | 0.01 | 0.51 | 0.13 | 90 | 1020.6 |
| 20260506180048 | 38 | 320 | 0.0 | 0.0 | 0.01 | 0.51 | 0.13 | 90 | 1020.7 |
| 20260506175527 | 37 | 320 | 0.0 | 0.0 | 0.01 | 0.51 | 0.13 | 90 | 1020.6 |
| 20260506175012 | 38 | 320 | 0.0 | 0.0 | 0.02 | 0.51 | 0.13 | 90 | 1020.6 |
| 20260506174521 | 37 | 320 | 0.0 | 0.0 | 0.02 | 0.51 | 0.13 | 90 | 1020.7 |
| 20260506174021 | 37 | 320 | 0.0 | 0.0 | 0.02 | 0.51 | 0.13 | 90 | 1020.7 |
| 20260506173521 | 37 | 320 | 0.0 | 0.0 | 0.02 | 0.51 | 0.13 | 90 | 1020.6 |
| 20260506173029 | 37 | 320 | 0.0 | 1.7 | 0.01 | 0.50 | 0.12 | 90 | 1020.6 |
| 20260506172531 | 37 | 320 | 0.0 | 1.7 | 0.01 | 0.50 | 0.12 | 90 | 1020.5 |
| 20260506172038 | 37 | 320 | 0.0 | 0.0 | 0.01 | 0.50 | 0.12 | 90 | 1020.5 |
| 20260506171519 | 37 | 320 | 0.0 | 0.9 | 0.01 | 0.50 | 0.12 | 91 | 1020.5 |
| 20260506171021 | 37 | 320 | 0.0 | 0.9 | 0.02 | 0.50 | 0.12 | 91 | 1020.5 |
| 20260506170522 | 36 | 320 | 0.0 | 1.7 | 0.02 | 0.50 | 0.12 | 91 | 1020.5 |
| 20260506170030 | 36 | 320 | 0.0 | 1.7 | 0.02 | 0.50 | 0.12 | 92 | 1020.4 |
| 20260506165530 | 36 | 320 | 0.0 | 1.7 | 0.02 | 0.50 | 0.12 | 92 | 1020.4 |
| 20260506165013 | 35 | 320 | 0.0 | 1.7 | 0.01 | 0.49 | 0.11 | 92 | 1020.3 |
| 20260506164521 | 35 | 320 | 0.0 | 1.7 | 0.01 | 0.49 | 0.11 | 92 | 1020.3 |
| 20260506164042 | 35 | 320 | 0.0 | 1.7 | 0.01 | 0.49 | 0.11 | 92 | 1020.3 |
| 20260506163530 | 35 | 315 | 0.0 | 1.7 | 0.01 | 0.49 | 0.11 | 92 | 1020.3 |
| 20260506163012 | 35 | 313 | 0.0 | 1.7 | 0.02 | 0.49 | 0.11 | 93 | 1020.3 |
| 20260506162514 | 35 | 311 | 0.0 | 1.7 | 0.02 | 0.49 | 0.11 | 92 | 1020.1 |
| 20260506162023 | 35 | 309 | 0.0 | 3.5 | 0.02 | 0.49 | 0.11 | 92 | 1019.9 |
| 20260506161526 | 35 | 308 | 0.0 | 3.5 | 0.02 | 0.49 | 0.11 | 93 | 1019.8 |
| 20260506161053 | 35 | 302 | 0.9 | 3.5 | 0.01 | 0.48 | 0.10 | 93 | 1019.7 |
| 20260506160513 | 35 | 317 | 0.9 | 3.5 | 0.01 | 0.48 | 0.10 | 93 | 1019.6 |
| 20260506160015 | 34 | 336 | 0.0 | 2.6 | 0.01 | 0.48 | 0.10 | 93 | 1019.6 |
| 20260506155522 | 34 | 336 | 0.9 | 2.6 | 0.01 | 0.48 | 0.10 | 93 | 1019.8 |
| 20260506155024 | 34 | 306 | 0.0 | 2.6 | 0.01 | 0.48 | 0.10 | 93 | 1019.8 |
| 20260506154533 | 34 | 290 | 0.0 | 2.6 | 0.01 | 0.48 | 0.10 | 93 | 1019.8 |
| 20260506154015 | 34 | 288 | 0.0 | 3.5 | 0.01 | 0.48 | 0.10 | 94 | 1019.7 |
| 20260506153516 | 34 | 304 | 0.0 | 5.2 | 0.01 | 0.48 | 0.10 | 94 | 1019.6 |
| 20260506153024 | 34 | 327 | 1.7 | 5.2 | 0.00 | 0.47 | 0.09 | 94 | 1019.5 |
| 20260506152545 | 34 | 320 | 0.0 | 3.5 | 0.00 | 0.47 | 0.09 | 94 | 1019.4 |
| 20260506152033 | 34 | 289 | 0.0 | 3.5 | 0.01 | 0.47 | 0.09 | 94 | 1019.4 |
| 20260506151515 | 34 | 310 | 0.9 | 4.3 | 0.01 | 0.47 | 0.09 | 94 | 1019.4 |
| 20260506151016 | 34 | 330 | 0.9 | 4.3 | 0.01 | 0.47 | 0.09 | 94 | 1019.3 |
| 20260506150524 | 34 | 315 | 0.0 | 1.7 | 0.01 | 0.47 | 0.09 | 94 | 1019.3 |
| 20260506150025 | 34 | 315 | 0.0 | 1.7 | 0.01 | 0.47 | 0.09 | 94 | 1019.3 |
| 20260506145526 | 33 | 315 | 0.0 | 2.6 | 0.01 | 0.47 | 0.09 | 94 | 1019.3 |
| 20260506145034 | 33 | 298 | 0.0 | 2.6 | 0.01 | 0.47 | 0.09 | 94 | 1019.2 |
| 20260506144515 | 33 | 302 | 0.9 | 1.7 | 0.01 | 0.47 | 0.09 | 94 | 1019.2 |
| 20260506144016 | 33 | 320 | 0.9 | 1.7 | 0.01 | 0.47 | 0.09 | 94 | 1019.2 |
| 20260506143543 | 33 | 320 | 0.0 | 1.7 | 0.01 | 0.47 | 0.09 | 94 | 1019.1 |
| 20260506143023 | 33 | 320 | 0.0 | 1.7 | 0.01 | 0.47 | 0.09 | 94 | 1019.0 |
| 20260506142531 | 33 | 320 | 0.0 | 0.9 | 0.01 | 0.47 | 0.09 | 95 | 1019.0 |
| 20260506142033 | 33 | 319 | 0.0 | 0.0 | 0.00 | 0.46 | 0.08 | 94 | 1018.9 |
| 20260506141521 | 33 | 319 | 0.0 | 0.9 | 0.00 | 0.46 | 0.08 | 94 | 1018.9 |
| 20260506141042 | 33 | 319 | 0.0 | 0.9 | 0.00 | 0.46 | 0.08 | 94 | 1018.9 |
| 20260506140549 | 33 | 324 | 0.0 | 0.9 | 0.00 | 0.46 | 0.08 | 94 | 1018.9 |
| 20260506140037 | 33 | 332 | 0.0 | 0.0 | 0.00 | 0.46 | 0.08 | 95 | 1018.8 |
| 20260506135539 | 33 | 332 | 0.0 | 0.0 | 0.00 | 0.46 | 0.08 | 95 | 1018.8 |
| 20260506135019 | 33 | 332 | 0.0 | 0.0 | 0.00 | 0.46 | 0.08 | 95 | 1018.8 |
| 20260506134527 | 33 | 332 | 0.0 | 0.0 | 0.01 | 0.46 | 0.08 | 95 | 1018.7 |
| 20260506134028 | 33 | 332 | 0.0 | 0.0 | 0.01 | 0.46 | 0.08 | 95 | 1018.7 |
| 20260506133536 | 33 | 332 | 0.0 | 0.0 | 0.01 | 0.46 | 0.08 | 95 | 1018.6 |
| 20260506133017 | 33 | 332 | 0.0 | 0.0 | 0.01 | 0.46 | 0.08 | 94 | 1018.6 |
| 20260506132518 | 33 | 332 | 0.0 | 0.0 | 0.01 | 0.46 | 0.08 | 94 | 1018.4 |
| 20260506132026 | 33 | 332 | 0.0 | 0.0 | 0.01 | 0.46 | 0.08 | 94 | 1018.4 |
| 20260506131527 | 33 | 332 | 0.0 | 0.0 | 0.01 | 0.46 | 0.08 | 94 | 1018.3 |
| 20260506131033 | 33 | 332 | 0.0 | 0.0 | 0.01 | 0.46 | 0.08 | 95 | 1018.3 |
| 20260506130535 | 33 | 332 | 0.0 | 0.0 | 0.01 | 0.46 | 0.08 | 95 | 1018.1 |
| 20260506130023 | 33 | 332 | 0.0 | 0.0 | 0.01 | 0.46 | 0.08 | 95 | 1017.9 |
| 20260506125523 | 33 | 332 | 0.0 | 0.0 | 0.01 | 0.46 | 0.08 | 95 | 1018.0 |
| 20260506125024 | 33 | 332 | 0.0 | 0.0 | 0.01 | 0.46 | 0.08 | 95 | 1017.8 |
| 20260506124531 | 33 | 332 | 0.0 | 0.0 | 0.00 | 0.45 | 0.07 | 95 | 1017.7 |
| 20260506124033 | 33 | 332 | 0.0 | 0.0 | 0.00 | 0.45 | 0.07 | 95 | 1017.8 |
| 20260506123521 | 33 | 332 | 0.0 | 0.0 | 0.00 | 0.45 | 0.07 | 94 | 1017.6 |
| 20260506123042 | 33 | 332 | 0.0 | 0.0 | 0.00 | 0.45 | 0.07 | 94 | 1017.5 |
| 20260506122546 | 33 | 332 | 0.0 | 0.0 | 0.00 | 0.45 | 0.07 | 94 | 1017.6 |
| 20260506122027 | 33 | 332 | 0.0 | 0.0 | 0.00 | 0.45 | 0.07 | 94 | 1017.6 |
| 20260506121519 | 33 | 332 | 0.0 | 0.0 | 0.00 | 0.45 | 0.07 | 94 | 1017.6 |
| 20260506121021 | 33 | 332 | 0.0 | 0.0 | 0.00 | 0.45 | 0.07 | 94 | 1017.5 |
| 20260506120522 | 33 | 332 | 0.0 | 0.0 | 0.01 | 0.45 | 0.07 | 94 | 1017.3 |
| 20260506120030 | 33 | 332 | 0.0 | 0.0 | 0.01 | 0.45 | 0.07 | 94 | 1017.3 |
| 20260506115530 | 33 | 332 | 0.0 | 0.0 | 0.01 | 0.45 | 0.07 | 94 | 1017.3 |
| 20260506115038 | 33 | 332 | 0.0 | 0.0 | 0.01 | 0.45 | 0.07 | 94 | 1017.3 |
| 20260506114540 | 33 | 332 | 0.0 | 0.0 | 0.01 | 0.45 | 0.07 | 94 | 1017.3 |
| 20260506114020 | 33 | 332 | 0.0 | 0.0 | 0.01 | 0.45 | 0.07 | 94 | 1017.3 |
| 20260506113528 | 33 | 332 | 0.0 | 0.0 | 0.01 | 0.45 | 0.07 | 94 | 1017.2 |
| 20260506113028 | 33 | 332 | 0.0 | 0.0 | 0.01 | 0.45 | 0.07 | 94 | 1017.1 |
| 20260506112537 | 33 | 332 | 0.0 | 0.0 | 0.01 | 0.45 | 0.07 | 94 | 1017.0 |
| 20260506112018 | 33 | 332 | 0.0 | 0.0 | 0.01 | 0.45 | 0.07 | 94 | 1016.9 |
| 20260506111520 | 33 | 332 | 0.0 | 0.0 | 0.01 | 0.45 | 0.07 | 94 | 1016.9 |
| 20260506111021 | 33 | 332 | 0.0 | 0.0 | 0.01 | 0.45 | 0.07 | 94 | 1016.7 |
| 20260506110529 | 33 | 332 | 0.0 | 0.0 | 0.00 | 0.44 | 0.06 | 94 | 1016.7 |
| 20260506110030 | 33 | 332 | 0.0 | 0.0 | 0.00 | 0.44 | 0.06 | 95 | 1016.7 |
| 20260506105517 | 33 | 332 | 0.0 | 0.0 | 0.00 | 0.44 | 0.06 | 95 | 1016.7 |
| 20260506105018 | 33 | 332 | 0.0 | 0.0 | 0.01 | 0.44 | 0.06 | 95 | 1016.6 |
| 20260506104527 | 33 | 332 | 0.0 | 0.0 | 0.01 | 0.44 | 0.06 | 95 | 1016.6 |
| 20260506104028 | 33 | 332 | 0.0 | 0.0 | 0.01 | 0.44 | 0.06 | 94 | 1016.6 |
| 20260506103528 | 33 | 332 | 0.0 | 0.0 | 0.01 | 0.44 | 0.06 | 95 | 1016.6 |
| 20260506103036 | 33 | 332 | 0.0 | 0.0 | 0.01 | 0.44 | 0.06 | 94 | 1016.6 |
| 20260506102516 | 33 | 332 | 0.0 | 0.0 | 0.01 | 0.44 | 0.06 | 94 | 1016.7 |
| 20260506102045 | 33 | 332 | 0.0 | 0.0 | 0.01 | 0.44 | 0.06 | 94 | 1016.7 |
| 20260506101525 | 33 | 332 | 0.0 | 0.0 | 0.01 | 0.44 | 0.06 | 94 | 1016.6 |
| 20260506101033 | 33 | 332 | 0.0 | 0.0 | 0.01 | 0.44 | 0.06 | 94 | 1016.6 |
| 20260506100514 | 33 | 332 | 0.0 | 0.0 | 0.01 | 0.44 | 0.06 | 94 | 1016.7 |
| 20260506100023 | 33 | 332 | 0.0 | 0.0 | 0.01 | 0.45 | 0.06 | 94 | 1016.7 |
| 20260506095524 | 33 | 332 | 0.0 | 0.0 | 0.01 | 0.45 | 0.06 | 94 | 1016.9 |
| 20260506095026 | 33 | 332 | 0.0 | 0.0 | 0.01 | 0.44 | 0.05 | 94 | 1016.8 |
| 20260506094534 | 33 | 332 | 0.0 | 0.0 | 0.01 | 0.44 | 0.05 | 94 | 1016.9 |
| 20260506094016 | 33 | 332 | 0.0 | 0.0 | 0.01 | 0.44 | 0.05 | 94 | 1016.9 |
| 20260506093517 | 33 | 332 | 0.0 | 0.0 | 0.01 | 0.44 | 0.05 | 94 | 1016.8 |
| 20260506093025 | 33 | 332 | 0.0 | 0.0 | 0.01 | 0.44 | 0.05 | 94 | 1016.8 |
| 20260506092527 | 33 | 332 | 0.0 | 0.0 | 0.01 | 0.44 | 0.05 | 94 | 1016.7 |
| 20260506092029 | 33 | 332 | 0.0 | 0.0 | 0.01 | 0.44 | 0.05 | 94 | 1016.6 |
| 20260506091537 | 33 | 332 | 0.0 | 0.0 | 0.01 | 0.44 | 0.05 | 94 | 1016.5 |
| 20260506091018 | 33 | 332 | 0.0 | 0.0 | 0.01 | 0.44 | 0.05 | 94 | 1016.6 |
| 20260506090519 | 33 | 332 | 0.0 | 0.0 | 0.02 | 0.44 | 0.05 | 94 | 1016.8 |
| 20260506090026 | 33 | 332 | 0.0 | 0.0 | 0.02 | 0.44 | 0.05 | 94 | 1016.7 |
| 20260506085554 | 33 | 332 | 0.0 | 0.0 | 0.02 | 0.44 | 0.05 | 94 | 1016.7 |
| 20260506085107 | 33 | 332 | 0.0 | 0.0 | 0.01 | 0.43 | 0.04 | 94 | 1016.7 |
| 20260506084526 | 33 | 332 | 0.0 | 0.0 | 0.01 | 0.43 | 0.04 | 94 | 1016.7 |
| 20260506084018 | 33 | 332 | 0.0 | 0.0 | 0.01 | 0.43 | 0.04 | 94 | 1016.6 |
| 20260506083532 | 33 | 332 | 0.0 | 0.0 | 0.01 | 0.43 | 0.04 | 94 | 1016.7 |
| 20260506083030 | 33 | 332 | 0.0 | 0.0 | 0.01 | 0.43 | 0.04 | 94 | 1016.8 |
| 20260506082557 | 33 | 332 | 0.0 | 0.0 | 0.02 | 0.43 | 0.04 | 94 | 1016.7 |
| 20260506082017 | 33 | 332 | 0.0 | 0.0 | 0.02 | 0.43 | 0.04 | 94 | 1016.9 |
| 20260506081545 | 33 | 332 | 0.0 | 0.0 | 0.02 | 0.43 | 0.04 | 94 | 1016.8 |
| 20260506081025 | 33 | 332 | 0.0 | 0.0 | 0.02 | 0.43 | 0.04 | 94 | 1016.9 |
| 20260506080527 | 33 | 332 | 0.0 | 0.0 | 0.01 | 0.42 | 0.03 | 94 | 1016.6 |
| 20260506073527 | 33 | 332 | 0.0 | 0.0 | 0.02 | 0.42 | 0.03 | 94 | 1017.2 |
| 20260506073036 | 33 | 332 | 0.0 | 0.0 | 0.02 | 0.42 | 0.03 | 94 | 1017.0 |
| 20260506072538 | 33 | 332 | 0.0 | 0.0 | 0.01 | 0.41 | 0.02 | 94 | 1016.8 |
| 20260506072019 | 33 | 332 | 0.0 | 0.0 | 0.02 | 0.41 | 0.02 | 94 | 1016.7 |
| 20260506071528 | 33 | 332 | 0.0 | 0.0 | 0.02 | 0.41 | 0.02 | 94 | 1016.7 |
| 20260506071029 | 33 | 332 | 0.0 | 1.7 | 0.02 | 0.41 | 0.02 | 94 | 1016.8 |
| 20260506070537 | 33 | 332 | 0.0 | 1.7 | 0.02 | 0.41 | 0.02 | 94 | 1016.8 |
| 20260506062032 | 34 | 332 | 0.0 | 0.0 | 0.02 | 0.39 | 0.00 | 94 | 1016.4 |
| 20260506061514 | 34 | 332 | 0.0 | 0.0 | 0.02 | 0.39 | 0.00 | 94 | 1016.3 |
| 20260506061042 | 34 | 332 | 0.0 | 0.0 | 0.03 | 0.39 | 0.00 | 94 | 1016.4 |
| 20260506060524 | 34 | 332 | 0.0 | 0.0 | 0.03 | 0.39 | 0.00 | 94 | 1016.4 |
| 20260506051043 | 33 | 332 | 0.0 | 0.0 | 0.03 | 0.36 | 0.36 | 94 | 1015.8 |
| 20260506050551 | 33 | 332 | 0.0 | 0.0 | 0.03 | 0.36 | 0.36 | 94 | 1015.8 |
| 20260506045021 | 33 | 332 | 0.0 | 0.0 | 0.03 | 0.36 | 0.35 | 94 | 1015.8 |
| 20260506044522 | 33 | 332 | 0.0 | 0.0 | 0.03 | 0.36 | 0.35 | 94 | 1015.9 |
| 20260506044030 | 33 | 332 | 0.0 | 0.0 | 0.03 | 0.36 | 0.35 | 94 | 1015.7 |
| 20260506043552 | 33 | 332 | 0.0 | 0.0 | 0.03 | 0.36 | 0.35 | 94 | 1015.7 |
| 20260506043039 | 33 | 332 | 0.0 | 0.0 | 0.03 | 0.35 | 0.34 | 94 | 1015.8 |
| 20260506042519 | 33 | 332 | 0.0 | 0.0 | 0.03 | 0.35 | 0.34 | 94 | 1015.9 |
| 20260506042022 | 33 | 332 | 0.0 | 0.0 | 0.03 | 0.35 | 0.34 | 94 | 1015.8 |
| 20260506041530 | 33 | 332 | 0.0 | 0.0 | 0.04 | 0.35 | 0.34 | 94 | 1015.7 |
| 20260506041031 | 33 | 332 | 0.0 | 0.0 | 0.03 | 0.34 | 0.33 | 94 | 1015.7 |
| 20260506040532 | 33 | 332 | 0.0 | 0.0 | 0.03 | 0.34 | 0.33 | 94 | 1015.6 |
| 20260506040013 | 33 | 332 | 0.0 | 0.0 | 0.04 | 0.35 | 0.33 | 94 | 1015.5 |
| 20260506035521 | 33 | 332 | 0.0 | 0.0 | 0.03 | 0.34 | 0.32 | 94 | 1015.5 |
| 20260506035022 | 33 | 332 | 0.0 | 0.0 | 0.04 | 0.34 | 0.32 | 94 | 1015.6 |
| 20260506034529 | 33 | 332 | 0.0 | 0.0 | 0.04 | 0.34 | 0.32 | 94 | 1015.6 |
| 20260506034029 | 34 | 332 | 0.0 | 0.0 | 0.05 | 0.34 | 0.32 | 94 | 1015.6 |
| 20260506033537 | 33 | 332 | 0.0 | 0.0 | 0.04 | 0.33 | 0.31 | 94 | 1015.6 |
| 20260506033016 | 34 | 332 | 0.0 | 0.0 | 0.05 | 0.33 | 0.31 | 94 | 1015.4 |
| 20260506032545 | 34 | 332 | 0.0 | 0.0 | 0.05 | 0.33 | 0.31 | 94 | 1015.3 |
| 20260506032024 | 34 | 332 | 0.0 | 0.0 | 0.06 | 0.33 | 0.31 | 94 | 1015.3 |
| 20260506031525 | 34 | 332 | 0.0 | 0.0 | 0.05 | 0.32 | 0.30 | 94 | 1015.4 |
| 20260506031032 | 34 | 332 | 0.0 | 0.0 | 0.06 | 0.32 | 0.30 | 94 | 1015.3 |
| 20260506030514 | 34 | 332 | 0.0 | 0.0 | 0.06 | 0.32 | 0.30 | 94 | 1015.1 |
| 20260506030015 | 34 | 332 | 0.0 | 0.0 | 0.06 | 0.32 | 0.29 | 94 | 1015.1 |
| 20260506025523 | 34 | 332 | 0.0 | 0.0 | 0.06 | 0.32 | 0.29 | 94 | 1015.0 |
| 20260506025051 | 34 | 332 | 0.0 | 0.0 | 0.06 | 0.31 | 0.28 | 94 | 1014.9 |
| 20260506024551 | 34 | 332 | 0.0 | 0.0 | 0.06 | 0.31 | 0.28 | 94 | 1014.8 |
| 20260506024038 | 34 | 332 | 0.0 | 0.0 | 0.06 | 0.30 | 0.27 | 94 | 1014.6 |
| 20260506023521 | 34 | 332 | 0.0 | 0.0 | 0.07 | 0.30 | 0.27 | 94 | 1014.6 |
| 20260506023021 | 34 | 332 | 0.0 | 0.0 | 0.07 | 0.29 | 0.26 | 94 | 1014.5 |
| 20260506022531 | 34 | 332 | 0.0 | 0.0 | 0.07 | 0.29 | 0.26 | 94 | 1014.4 |
| 20260506022032 | 34 | 332 | 0.0 | 0.0 | 0.07 | 0.28 | 0.25 | 94 | 1014.4 |
| 20260506021532 | 34 | 332 | 0.0 | 0.0 | 0.08 | 0.28 | 0.25 | 94 | 1014.2 |
| 20260506021013 | 34 | 332 | 0.0 | 0.9 | 0.07 | 0.27 | 0.24 | 94 | 1014.1 |
| 20260506020523 | 34 | 332 | 0.0 | 0.9 | 0.08 | 0.27 | 0.24 | 94 | 1014.1 |
| 20260506020051 | 34 | 332 | 0.0 | 0.0 | 0.08 | 0.26 | 0.23 | 94 | 1013.9 |
| 20260506015551 | 34 | 332 | 0.0 | 0.0 | 0.08 | 0.28 | 0.23 | 94 | 1014.1 |
| 20260506015039 | 34 | 332 | 0.0 | 0.0 | 0.08 | 0.27 | 0.22 | 94 | 1013.9 |
| 20260506014518 | 34 | 332 | 0.0 | 0.0 | 0.08 | 0.26 | 0.21 | 94 | 1013.9 |
| 20260506014046 | 34 | 332 | 0.0 | 0.0 | 0.09 | 0.26 | 0.21 | 93 | 1013.8 |
| 20260506013554 | 34 | 332 | 0.0 | 0.0 | 0.08 | 0.25 | 0.20 | 93 | 1013.7 |
| 20260506013015 | 34 | 332 | 0.0 | 0.9 | 0.08 | 0.24 | 0.19 | 93 | 1013.9 |